Zurück zum Katalog

GSAT 29

AktivKommunikationGEO
NORAD 43698·PAYLOAD·🇮🇳 India

Gestartet Nov 14, 2018 von Satish Dhawan Space Centre

Loading…

TLE

AktuellSource: Space-Track

Epoche: Sep 14, 2026, 12:21 UTC

1 43698U 18089A   26257.51472866  .00000076  00000-0  00000-0 0  9990
2 43698   0.0487 269.0779 0001600 255.1830  69.6051  1.00275967 28680

Verfolge GSAT 29 in Echtzeit mit AllMySat

Download on the App Store